Weather History for KSOW - November, 2013

Change the Weather History Date:

Wednesday, November 20, 2013

  Actual Average Record
Temperature  
Mean Temperature 42 °F -  
Max Temperature 48 °F 52 °F 68 °F (1966)
Min Temperature 37 °F 31 °F 13 °F (1969)
Degree Days  
Heating Degree Days 22    
Moisture  
Dew Point 33 °F    
Average Humidity 68    
Maximum Humidity 93    
Minimum Humidity 46    
Precipitation  
Precipitation 0.06 in - - ()
Sea Level Pressure  
Sea Level Pressure 29.99 in    
Wind  
Wind Speed 11 mph (SSW)    
Max Wind Speed 21 mph    
Max Gust Speed 24 mph    
Visibility 10 miles    
Events Rain    
Averages and records for this station are not official NWS values.
T = Trace of Precipitation, MM = Missing Value Source: NWS Daily Summary

Daily Weather History Graph

Daily Weather History Graph

Search for Another Location

Airport or City:

Trip Planner

Search our weather history database for the weather conditions in past years. The results will help you decide how hot, cold, wet, or windy it might be!

Date:

Astronomy

Nov. 20, 2013 Rise Set
Actual Time 6:58 AM MST 5:13 PM MST
Civil Twilight 6:31 AM MST 5:40 PM MST
Nautical Twilight 6:00 AM MST 6:10 PM MST
Astronomical Twilight 5:30 AM MST 6:40 PM MST
Moon 7:58 PM MST (11/20) 9:25 AM MST (11/20)
Length of Visible Light 11h 08m
Length of Day
10h 15m
Waning Gibbous, 91% of the Moon is Illuminated
Nov 20
Waning Gibbous
Nov 25
Last Quarter
Dec 2
New
Dec 9
First Quarter
Dec 17
Full

Hourly Weather History & Observations

Time (MST) Temp. Windchill Dew Point Humidity Pressure Visibility Wind Dir Wind Speed Gust Speed Precip Events Conditions
12:15 AM 42.8 °F 37.0 °F 26.6 °F 53% 30.00 in 10.0 mi South 10.4 mph - N/A   Clear
12:35 AM 42.8 °F 37.0 °F 26.6 °F 53% 30.00 in 10.0 mi South 10.4 mph - N/A   Clear
12:55 AM 44.6 °F 37.8 °F 26.6 °F 49% 29.99 in 10.0 mi South 15.0 mph 18.4 mph N/A   Clear
1:15 AM 44.6 °F 38.1 °F 26.6 °F 49% 29.99 in 10.0 mi South 13.8 mph - N/A   Clear
1:35 AM 44.6 °F 40.2 °F 26.6 °F 49% 30.00 in 10.0 mi South 8.1 mph - N/A   Clear
1:55 AM 44.6 °F 39.2 °F 26.6 °F 49% 30.00 in 10.0 mi South 10.4 mph - N/A   Clear
2:15 AM 42.8 °F 38.6 °F 28.4 °F 57% 30.00 in 10.0 mi SSW 6.9 mph - N/A   Clear
2:35 AM 41.0 °F 37.1 °F 28.4 °F 61% 30.00 in 10.0 mi South 5.8 mph - N/A   Clear
2:55 AM 41.0 °F 39.0 °F 28.4 °F 61% 30.00 in 10.0 mi SSW 3.5 mph - N/A   Clear
3:15 AM 41.0 °F 37.1 °F 28.4 °F 61% 30.01 in 10.0 mi SSW 5.8 mph - N/A   Clear
3:35 AM 41.0 °F 36.4 °F 28.4 °F 61% 30.00 in 10.0 mi SSW 6.9 mph - N/A   Clear
3:55 AM 44.6 °F 40.7 °F 28.4 °F 53% 30.00 in 10.0 mi South 6.9 mph - N/A   Partly Cloudy
4:15 AM 44.6 °F 39.2 °F 30.2 °F 57% 29.99 in 10.0 mi South 10.4 mph - N/A   Partly Cloudy
4:35 AM 44.6 °F 40.7 °F 30.2 °F 57% 30.00 in 10.0 mi WSW 6.9 mph - N/A   Partly Cloudy
4:55 AM 44.6 °F 39.7 °F 32.0 °F 61% 30.02 in 10.0 mi SW 9.2 mph - N/A   Mostly Cloudy
5:15 AM 44.6 °F 39.7 °F 32.0 °F 61% 30.01 in 10.0 mi SSW 9.2 mph - N/A   Partly Cloudy
5:35 AM 44.6 °F 39.7 °F 32.0 °F 61% 30.01 in 10.0 mi WSW 9.2 mph - N/A   Partly Cloudy
5:55 AM 44.6 °F 39.7 °F 32.0 °F 61% 30.02 in 10.0 mi SSW 9.2 mph - N/A   Scattered Clouds
6:15 AM 44.6 °F 37.8 °F 32.0 °F 61% 30.02 in 10.0 mi SSW 15.0 mph 18.4 mph N/A Rain Light Rain
6:35 AM 42.8 °F 37.5 °F 32.0 °F 66% 30.02 in 10.0 mi SSW 9.2 mph 16.1 mph N/A Rain Light Rain
6:55 AM 42.8 °F 35.4 °F 32.0 °F 66% 30.01 in 9.0 mi SSW 15.0 mph 20.7 mph N/A Rain Light Rain
7:15 AM 41.0 °F 34.7 °F 32.0 °F 70% 30.01 in 10.0 mi SW 10.4 mph - N/A Rain Light Rain
7:35 AM 41.0 °F 33.5 °F 35.6 °F 81% 30.01 in 9.0 mi South 13.8 mph - N/A Rain Light Rain
7:55 AM 41.0 °F 34.3 °F 35.6 °F 81% 30.02 in 5.0 mi South 11.5 mph - N/A Rain Light Rain
8:15 AM 39.2 °F 33.6 °F 37.4 °F 93% 30.02 in 2.5 mi South 8.1 mph - 0.03 in Rain Rain
8:35 AM 39.2 °F 33.0 °F 37.4 °F 93% 30.02 in 4.0 mi South 9.2 mph - 0.05 in Rain Light Rain
8:55 AM 41.0 °F 35.8 °F 37.4 °F 87% 30.02 in 9.0 mi South 8.1 mph - 0.05 in Rain Light Rain
9:15 AM 41.0 °F 35.8 °F 37.4 °F 87% 30.01 in 10.0 mi South 8.1 mph - N/A   Overcast
9:35 AM 41.0 °F 35.2 °F 37.4 °F 87% 30.01 in 3.0 mi South 9.2 mph - 0.01 in Rain Light Rain
9:55 AM 41.0 °F 37.1 °F 37.4 °F 87% 30.02 in 10.0 mi South 5.8 mph - 0.01 in   Overcast
10:15 AM 41.0 °F 35.8 °F 37.4 °F 87% 30.02 in 10.0 mi South 8.1 mph - N/A   Overcast
10:35 AM 41.0 °F 34.7 °F 37.4 °F 87% 30.01 in 10.0 mi South 10.4 mph - N/A   Overcast
10:55 AM 42.8 °F 37.5 °F 37.4 °F 81% 30.01 in 10.0 mi South 9.2 mph - N/A   Overcast
11:15 AM 42.8 °F 38.0 °F 37.4 °F 81% 30.01 in 10.0 mi SSW 8.1 mph - N/A   Overcast
11:35 AM 42.8 °F 37.5 °F 37.4 °F 81% 29.98 in 10.0 mi South 9.2 mph - N/A   Overcast
11:55 AM 44.6 °F 39.7 °F 37.4 °F 76% 29.97 in 10.0 mi South 9.2 mph - N/A   Mostly Cloudy
12:15 PM 46.4 °F 41.5 °F 37.4 °F 71% 29.96 in 10.0 mi SSW 10.4 mph - N/A   Mostly Cloudy
12:35 PM 48.2 °F - 35.6 °F 62% 29.94 in 10.0 mi SSW 12.7 mph - N/A   Mostly Cloudy
12:55 PM 48.2 °F - 35.6 °F 62% 29.93 in 10.0 mi SSW 13.8 mph 17.3 mph N/A   Mostly Cloudy
1:15 PM 48.2 °F - 32.0 °F 54% 29.93 in 10.0 mi SSW 12.7 mph - N/A   Mostly Cloudy
1:35 PM 48.2 °F - 32.0 °F 54% 29.92 in 10.0 mi SW 13.8 mph 23.0 mph N/A   Overcast
1:55 PM 48.2 °F - 32.0 °F 54% 29.93 in 10.0 mi SW 20.7 mph - N/A   Mostly Cloudy
2:15 PM 48.2 °F - 32.0 °F 54% 29.93 in 10.0 mi SW 19.6 mph 24.2 mph N/A   Scattered Clouds
2:35 PM 48.2 °F - 28.4 °F 46% 29.94 in 10.0 mi SW 19.6 mph 24.2 mph N/A   Scattered Clouds
2:55 PM 48.2 °F - 32.0 °F 54% 29.93 in 10.0 mi SSW 11.5 mph - N/A   Mostly Cloudy
3:15 PM 48.2 °F - 32.0 °F 54% 29.93 in 10.0 mi SW 13.8 mph - N/A   Overcast
3:35 PM 46.4 °F 40.1 °F 33.8 °F 62% 29.94 in 10.0 mi WSW 15.0 mph 18.4 mph N/A   Overcast
3:55 PM 46.4 °F 40.1 °F 33.8 °F 62% 29.95 in 10.0 mi SW 15.0 mph 21.9 mph N/A   Overcast
4:15 PM 46.4 °F 40.7 °F 33.8 °F 62% 29.94 in 10.0 mi SW 12.7 mph 21.9 mph N/A   Overcast
4:35 PM 46.4 °F 40.4 °F 32.0 °F 57% 29.95 in 10.0 mi SW 13.8 mph 20.7 mph N/A   Overcast
4:55 PM 46.4 °F 40.4 °F 32.0 °F 57% 29.94 in 10.0 mi SSW 13.8 mph 24.2 mph N/A   Overcast
5:15 PM 44.6 °F 39.2 °F 33.8 °F 66% 29.96 in 10.0 mi SW 10.4 mph - N/A   Overcast
5:35 PM 44.6 °F 39.2 °F 32.0 °F 61% 29.97 in 10.0 mi SW 10.4 mph 16.1 mph N/A   Overcast
5:55 PM 44.6 °F 37.8 °F 32.0 °F 61% 29.97 in 10.0 mi SSW 15.0 mph - N/A   Overcast
6:15 PM 44.6 °F 38.1 °F 32.0 °F 61% 29.97 in 10.0 mi SSW 13.8 mph - N/A   Overcast
6:35 PM 44.6 °F 37.8 °F 32.0 °F 61% 29.97 in 10.0 mi SSW 15.0 mph 20.7 mph N/A   Overcast
6:55 PM 44.6 °F 39.2 °F 32.0 °F 61% 29.98 in 10.0 mi SSW 10.4 mph - N/A   Overcast
7:15 PM 44.6 °F 38.4 °F 33.8 °F 66% 29.98 in 10.0 mi South 12.7 mph - N/A   Overcast
7:35 PM 42.8 °F 36.2 °F 35.6 °F 76% 29.98 in 10.0 mi South 12.7 mph - N/A   Overcast
7:55 PM 42.8 °F 35.8 °F 33.8 °F 70% 29.98 in 10.0 mi South 13.8 mph - N/A   Overcast
8:15 PM 42.8 °F 34.8 °F 32.0 °F 66% 29.98 in 10.0 mi South 17.3 mph 20.7 mph N/A   Overcast
8:35 PM 41.0 °F 33.1 °F 33.8 °F 76% 29.98 in 10.0 mi South 15.0 mph 21.9 mph N/A   Mostly Cloudy
8:55 PM 41.0 °F 34.7 °F 33.8 °F 76% 29.99 in 10.0 mi SSW 10.4 mph - N/A   Overcast
9:15 PM 39.2 °F 31.6 °F 33.8 °F 81% 29.99 in 10.0 mi South 12.7 mph - N/A   Mostly Cloudy
9:35 PM 39.2 °F 32.5 °F 33.8 °F 81% 29.99 in 10.0 mi South 10.4 mph - N/A   Mostly Cloudy
9:55 PM 39.2 °F 31.2 °F 33.8 °F 81% 30.00 in 10.0 mi South 13.8 mph 17.3 mph N/A   Scattered Clouds
10:15 PM 39.2 °F 31.6 °F 33.8 °F 81% 30.01 in 10.0 mi South 12.7 mph - N/A   Mostly Cloudy
10:35 PM 39.2 °F 31.6 °F 33.8 °F 81% 29.99 in 10.0 mi South 12.7 mph - N/A   Overcast
10:55 PM 39.2 °F 31.2 °F 33.8 °F 81% 30.00 in 10.0 mi South 13.8 mph - N/A   Overcast
11:15 PM 39.2 °F 32.0 °F 33.8 °F 81% 30.00 in 10.0 mi South 11.5 mph - N/A   Overcast
11:35 PM 37.4 °F 30.3 °F 33.8 °F 87% 30.00 in 10.0 mi South 10.4 mph - N/A   Mostly Cloudy
11:55 PM 37.4 °F 30.3 °F 33.8 °F 87% 30.00 in 10.0 mi South 10.4 mph - N/A   Overcast